Volver al catálogo

CZ-6A DEB

ActivoPO
NORAD 54904·DEBRIS·🇨🇳 China

Lanzado Nov 11, 2022 desde Taiyuan Satellite Launch Center

Loading…

Próximos Pases (próximas 24 horas)

TLE

ActualizadoSource: Space-Track

Época: Sep 13, 2026, 19:59 UTC

1 54904U 22151QR  26256.83311837  .00005657  00000-0  12336-2 0  9998
2 54904  99.0680  18.2792 0082279 125.1017 235.7927 14.56226197201663

Sigue CZ-6A DEB en tiempo real con AllMySat

Download on the App Store